• în Republica Moldova
  • Lista ţărilor
  • Pe 7 zile
  • Temperatura apei
  • Hartă satelitară
  • Meteo pe hartă
  • Widget-uri
  • user-avatar
    Intrare

    Meteo pe oră la Gjirokaster

    Astăzi, 24 Februarie, Sâmbătă

    Timp Temperatura Precipitaţii Vânt Presiune Umiditate
    00:00 0°C° 0 mm 4 m/s 642 mmHg 81%
    01:00 0°C° 0 mm 5 m/s 642 mmHg 81%
    02:00 0°C° 0,7 mm 5 m/s 642 mmHg 83%
    03:00 0°C° 0,7 mm 5 m/s 642 mmHg 85%
    04:00 0°C° 0,7 mm 5 m/s 642 mmHg 87%
    05:00 -1°C° 1 mm 5 m/s 642 mmHg 89%
    06:00 -1°C° 1 mm 5 m/s 642 mmHg 90%
    07:00 -1°C° 0 mm 5 m/s 642 mmHg 90%
    08:00 0°C° 0,4 mm 4 m/s 643 mmHg 86%
    09:00 +1°C° 0,4 mm 4 m/s 643 mmHg 83%
    10:00 +2°C° 0,4 mm 3 m/s 643 mmHg 79%
    11:00 +3°C° 0,3 mm 3 m/s 644 mmHg 76%
    12:00 +4°C° 0,3 mm 3 m/s 644 mmHg 74%
    13:00 +3°C° 0 mm 4 m/s 643 mmHg 75%
    14:00 +3°C° 0,3 mm 3 m/s 643 mmHg 77%
    15:00 +3°C° 0,3 mm 3 m/s 643 mmHg 78%
    16:00 +4°C° 0,3 mm 2 m/s 643 mmHg 80%
    17:00 +3°C° 0,4 mm 2 m/s 643 mmHg 83%
    18:00 +2°C° 0,4 mm 2 m/s 643 mmHg 87%
    19:00 +2°C° 0,4 mm 2 m/s 643 mmHg 90%
    20:00 +1°C° 0,2 mm 2 m/s 643 mmHg 90%
    21:00 +1°C° 0,2 mm 2 m/s 643 mmHg 90%
    22:00 +1°C° 0,2 mm 2 m/s 644 mmHg 90%
    23:00 +1°C° 0,2 mm 2 m/s 644 mmHg 89%

    Mâine, 25 Februarie, Duminică

    Timp Temperatura Precipitaţii Vânt Presiune Umiditate
    00:00 +1°C° 0,2 mm 2 m/s 644 mmHg 89%
    01:00 +1°C° 0,2 mm 2 m/s 644 mmHg 88%
    02:00 +1°C° 0,2 mm 2 m/s 644 mmHg 88%
    03:00 -1°C° 0,2 mm 2 m/s 644 mmHg 88%
    04:00 -1°C° 0,2 mm 2 m/s 644 mmHg 88%
    05:00 -1°C° 0,2 mm 3 m/s 644 mmHg 88%
    06:00 -1°C° 0,2 mm 3 m/s 644 mmHg 89%
    07:00 0°C° 0,2 mm 3 m/s 644 mmHg 89%
    08:00 +1°C° 0,2 mm 3 m/s 644 mmHg 86%
    09:00 +1°C° 0,2 mm 4 m/s 645 mmHg 83%
    10:00 +1°C° 0,2 mm 4 m/s 645 mmHg 80%
    11:00 +1°C° 0,6 mm 4 m/s 644 mmHg 80%
    12:00 +1°C° 0,6 mm 4 m/s 644 mmHg 81%
    13:00 +1°C° 0,6 mm 4 m/s 644 mmHg 81%
    14:00 +1°C° 1,4 mm 4 m/s 643 mmHg 84%
    15:00 0°C° 1,4 mm 4 m/s 643 mmHg 87%
    16:00 0°C° 1,4 mm 4 m/s 642 mmHg 90%
    17:00 -1°C° 3,1 mm 4 m/s 642 mmHg 90%
    18:00 -1°C° 3,1 mm 4 m/s 641 mmHg 91%
    19:00 -1°C° 3,1 mm 4 m/s 640 mmHg 92%
    20:00 -2°C° 4,4 mm 4 m/s 640 mmHg 92%
    21:00 -2°C° 4,4 mm 5 m/s 639 mmHg 91%
    22:00 -2°C° 4,4 mm 5 m/s 639 mmHg 91%
    23:00 -2°C° 5,7 mm 5 m/s 638 mmHg 92%

    Poimâine, 26 Februarie, Luni

    Timp Temperatura Precipitaţii Vânt Presiune Umiditate
    00:00 -4°C° 5,7 mm 5 m/s 638 mmHg 93%
    01:00 -3°C° 5,7 mm 4 m/s 637 mmHg 93%
    02:00 -3°C° 2,2 mm 4 m/s 637 mmHg 92%
    03:00 -4°C° 2,2 mm 4 m/s 636 mmHg 91%
    04:00 -4°C° 2,2 mm 4 m/s 636 mmHg 89%
    05:00 -4°C° 0,8 mm 4 m/s 636 mmHg 90%
    06:00 -4°C° 0,8 mm 4 m/s 636 mmHg 91%
    07:00 -5°C° 0,8 mm 5 m/s 637 mmHg 92%
    08:00 -5°C° 0,7 mm 5 m/s 637 mmHg 92%
    09:00 -4°C° 0,7 mm 4 m/s 637 mmHg 92%
    10:00 -4°C° 0,7 mm 4 m/s 638 mmHg 92%
    11:00 -3°C° 0,1 mm 4 m/s 638 mmHg 91%
    12:00 -3°C° 0,1 mm 4 m/s 638 mmHg 89%
    13:00 -2°C° 0,1 mm 3 m/s 639 mmHg 88%
    14:00 -2°C° 0,1 mm 3 m/s 639 mmHg 87%
    15:00 -2°C° 0,1 mm 2 m/s 639 mmHg 87%
    16:00 -2°C° 0,1 mm 2 m/s 639 mmHg 86%
    17:00 -2°C° 0,3 mm 2 m/s 639 mmHg 88%
    18:00 -2°C° 0,3 mm 2 m/s 639 mmHg 90%
    19:00 -3°C° 0,3 mm 2 m/s 639 mmHg 92%
    20:00 -3°C° 0,3 mm 2 m/s 640 mmHg 93%
    21:00 -3°C° 0,3 mm 2 m/s 640 mmHg 94%
    22:00 -4°C° 0,3 mm 3 m/s 640 mmHg 95%
    23:00 -4°C° 0,4 mm 3 m/s 640 mmHg 95%

    27 Februarie, Marţi

    Timp Temperatura Precipitaţii Vânt Presiune Umiditate
    00:00 -4°C° 0,4 mm 3 m/s 640 mmHg 95%
    01:00 -4°C° 0,4 mm 4 m/s 640 mmHg 95%
    02:00 -4°C° 0,2 mm 3 m/s 640 mmHg 94%
    03:00 -4°C° 0,2 mm 3 m/s 641 mmHg 93%
    04:00 -5°C° 0,2 mm 3 m/s 641 mmHg 92%
    05:00 -5°C° 0,2 mm 3 m/s 641 mmHg 92%
    06:00 -5°C° 0,2 mm 3 m/s 641 mmHg 91%
    07:00 -4°C° 0,2 mm 2 m/s 642 mmHg 90%
    08:00 -4°C° 0,1 mm 2 m/s 642 mmHg 88%
    09:00 -3°C° 0,1 mm 2 m/s 642 mmHg 85%
    10:00 -2°C° 0,1 mm 2 m/s 643 mmHg 83%
    11:00 -2°C° 0,1 mm 2 m/s 643 mmHg 81%
    12:00 -2°C° 0,1 mm 2 m/s 643 mmHg 79%
    13:00 -1°C° 0,1 mm 2 m/s 643 mmHg 77%
    14:00 -2°C° 0,1 mm 2 m/s 643 mmHg 78%
    15:00 0°C° 0,1 mm 1 m/s 643 mmHg 80%
    16:00 0°C° 0,1 mm 1 m/s 643 mmHg 81%
    17:00 0°C° 0,3 mm 1 m/s 643 mmHg 84%
    18:00 -3°C° 0,3 mm 2 m/s 643 mmHg 87%
    19:00 -3°C° 0,3 mm 2 m/s 643 mmHg 89%
    20:00 -3°C° 0,3 mm 2 m/s 643 mmHg 90%
    21:00 -3°C° 0,3 mm 2 m/s 643 mmHg 90%
    22:00 -3°C° 0,3 mm 2 m/s 643 mmHg 90%
    23:00 -3°C° 0,2 mm 2 m/s 643 mmHg 90%

    28 Februarie, Miercuri

    Timp Temperatura Precipitaţii Vânt Presiune Umiditate
    00:00 -5°C° 0,2 mm 3 m/s 643 mmHg 90%
    01:00 -5°C° 0,2 mm 3 m/s 643 mmHg 89%
    02:00 -5°C° 0 mm 3 m/s 643 mmHg 88%
    03:00 -5°C° 0 mm 3 m/s 643 mmHg 87%
    04:00 -6°C° 0 mm 3 m/s 643 mmHg 86%
    05:00 -6°C° 0 mm 3 m/s 643 mmHg 85%
    06:00 -7°C° 0 mm 3 m/s 643 mmHg 84%
    07:00 -7°C° 0 mm 3 m/s 643 mmHg 83%
    08:00 -6°C° 0 mm 3 m/s 644 mmHg 78%
    09:00 -4°C° 0 mm 3 m/s 645 mmHg 74%
    10:00 -2°C° 0 mm 3 m/s 646 mmHg 69%
    11:00 -2°C° 0 mm 3 m/s 646 mmHg 68%
    12:00 -1°C° 0 mm 3 m/s 646 mmHg 67%
    13:00 -1°C° 0 mm 3 m/s 647 mmHg 66%
    14:00 -1°C° 0 mm 3 m/s 647 mmHg 68%
    15:00 -1°C° 0 mm 3 m/s 647 mmHg 70%
    16:00 -2°C° 0 mm 3 m/s 648 mmHg 72%
    17:00 -4°C° 0 mm 3 m/s 648 mmHg 75%
    18:00 -5°C° 0 mm 3 m/s 648 mmHg 78%
    19:00 -6°C° 0 mm 2 m/s 649 mmHg 81%
    20:00 -6°C° 0 mm 2 m/s 649 mmHg 82%
    21:00 -6°C° 0 mm 2 m/s 649 mmHg 82%
    22:00 -7°C° 0 mm 2 m/s 650 mmHg 82%
    23:00 -7°C° 0 mm 2 m/s 650 mmHg 81%

    1 Martie, Joi

    Timp Temperatura Precipitaţii Vânt Presiune Umiditate
    00:00 -7°C° 0 mm 2 m/s 650 mmHg 80%
    01:00 -7°C° 0 mm 2 m/s 650 mmHg 79%
    02:00 -7°C° 0 mm 2 m/s 650 mmHg 77%
    03:00 -7°C° 0 mm 2 m/s 650 mmHg 76%
    04:00 -7°C° 0 mm 2 m/s 650 mmHg 74%
    05:00 -7°C° 0 mm 2 m/s 650 mmHg 72%
    06:00 -6°C° 0 mm 2 m/s 650 mmHg 70%
    07:00 -6°C° 0 mm 2 m/s 650 mmHg 67%
    08:00 -4°C° 0 mm 2 m/s 651 mmHg 63%
    09:00 -2°C° 0 mm 2 m/s 651 mmHg 59%
    10:00 +1°C° 0 mm 2 m/s 652 mmHg 55%
    11:00 0°C° 0 mm 3 m/s 651 mmHg 59%
    12:00 +1°C° 0 mm 3 m/s 651 mmHg 63%
    13:00 +1°C° 0 mm 3 m/s 651 mmHg 67%
    14:00 0°C° 0 mm 4 m/s 650 mmHg 71%
    15:00 0°C° 0 mm 4 m/s 650 mmHg 76%
    16:00 -1°C° 0 mm 4 m/s 650 mmHg 81%
    17:00 -1°C° 0 mm 4 m/s 649 mmHg 83%
    18:00 -2°C° 0 mm 4 m/s 649 mmHg 84%
    19:00 -2°C° 0 mm 4 m/s 649 mmHg 86%
    20:00 -2°C° 0 mm 4 m/s 649 mmHg 87%
    21:00 -2°C° 0 mm 5 m/s 649 mmHg 87%
    22:00 -2°C° 0 mm 5 m/s 649 mmHg 87%
    23:00 -2°C° 0 mm 5 m/s 649 mmHg 87%
    Arată mai mult